Hourly Data Report for October 24, 2015

All times are specified in Local Standard Time (LST). Add 1 hour to adjust for Daylight Saving Time where and when it is observed.

IQALUIT CLIMATE
NUNAVUT

63°44'50.000" N
68°32'40.000" W
33.50 m
2402592
71321
XFB

Download Data

Hourly Data (October 2015)
Hourly Data Report for October 24, 2015
Temp Definition
°C
Dew Point Temp Definition
°C
Rel Hum Definition
%
Wind Dir Definition
10's deg

Wind Spd Definition
km/h
Visibility Definition
km
Stn Press Definition
kPa
Hmdx Definition


Wind Chill Definition


Weather Definition


TIME
00:00 -4.0 -5.3 90 14 29   100.59   -12 LegendNANA
01:00 -3.7 -4.9 92 14 27   100.48   -11 LegendNANA
02:00 -3.0 -4.6 89 14 33   100.37   -11 LegendNANA
03:00 -2.9 -4.4 89 14 33   100.23   -11 LegendNANA
04:00 -3.2 -5.0 88 13 33   100.08   -11 LegendNANA
05:00 -2.4 -4.1 88 14 36   99.93   -10 LegendNANA
06:00 -2.3 -4.6 84 16 29   99.79   -9 LegendNANA
07:00 -3.3 -3.7 97 15 33   99.69   -11 LegendNANA
08:00 -3.1 -3.5 97 14 35   99.59   -11 LegendNANA
09:00 -2.9 -3.4 96 14 34   99.45   -11 LegendNANA
10:00 -2.6 -3.0 96 14 37   99.30   -11 LegendNANA
11:00 -2.5 -2.9 97 14 38   99.19   -11 LegendNANA
12:00 -2.2 -2.9 95 14 38   99.07   -10 LegendNANA
13:00 -2.0 -3.0 93 14 38   98.97   -10 LegendNANA
14:00 -1.8 -2.9 92 14 36   98.85   -9 LegendNANA
15:00 -1.6 -2.7 92 14 35   98.78   -9 LegendNANA
16:00 -1.5 -2.5 93 15 35   98.68   -9 LegendNANA
17:00 -1.1 -2.3 92 14 34   98.64   -8 LegendNANA
18:00 -1.0 -2.0 93 14 33   98.58   -8 LegendNANA
19:00 -0.9 -1.7 95 15 29   98.54   -8 LegendNANA
20:00 -1.0 -1.5 96 14 27   98.50   -7 LegendNANA
21:00 -0.9 -1.3 97 15 29   98.43   -8 LegendNANA
22:00 -0.9 -1.3 97 15 28   98.36   -7 LegendNANA
23:00 -0.7 -1.2 97 15 26   98.32   -7 LegendNANA

Notes on Data Quality.

Legend

  • E = Estimated
  • M = Missing
  • NA = Not Available
  • ‡ = Partner data that is not subject to review by the National Climate Archives
Date modified: